When you browse on this site, cookies collect data to enhance your experience and personalize the content and advertising you see.
Visit our Privacy Policy to learn more. By continuing to use the site, you agree to this use of cookies and data.
  • In United Kingdom
  • List of Countries
  • For 7 days
  • Water Temperature
  • Weather Map
  • Weather Widgets
  • user-avatar
    Login

    Hourly Weather Trujillo

    Today, 6 December, Friday

    Time Temperature Precipitation Wind Pressure Humidity
    00:00 +23°C° 0 mm 2 mps 763 mmHg 90%
    01:00 +23°C° 0 mm 2 mps 763 mmHg 88%
    02:00 +23°C° 0 mm 2 mps 762 mmHg 86%
    03:00 +24°C° 0 mm 2 mps 762 mmHg 84%
    04:00 +23°C° 0 mm 2 mps 762 mmHg 87%
    05:00 +23°C° 0 mm 2 mps 763 mmHg 90%
    06:00 +21°C° 0 mm 2 mps 763 mmHg 93%
    07:00 +24°C° 0 mm 2 mps 763 mmHg 83%
    08:00 +27°C° 0 mm 2 mps 764 mmHg 73%
    09:00 +29°C° 0 mm 2 mps 764 mmHg 63%
    10:00 +30°C° 0 mm 2 mps 763 mmHg 60%
    11:00 +31°C° 0 mm 3 mps 763 mmHg 57%
    12:00 +32°C° 0 mm 4 mps 762 mmHg 54%
    13:00 +30°C° 0 mm 4 mps 762 mmHg 59%
    14:00 +30°C° 0 mm 4 mps 762 mmHg 64%
    15:00 +29°C° 0 mm 4 mps 761 mmHg 69%
    16:00 +27°C° 0 mm 3 mps 762 mmHg 76%
    17:00 +26°C° 0 mm 3 mps 762 mmHg 84%
    18:00 +25°C° 0 mm 3 mps 763 mmHg 91%
    19:00 +24°C° 0 mm 3 mps 763 mmHg 92%
    20:00 +24°C° 0 mm 3 mps 764 mmHg 93%
    21:00 +24°C° 0 mm 2 mps 764 mmHg 94%
    22:00 +24°C° 0 mm 2 mps 764 mmHg 92%
    23:00 +24°C° 0 mm 3 mps 764 mmHg 90%

    Tomorrow, 7 December, Saturday

    Time Temperature Precipitation Wind Pressure Humidity
    00:00 +25°C° 0 mm 3 mps 763 mmHg 88%
    01:00 +24°C° 0.1 mm 2 mps 763 mmHg 90%
    02:00 +24°C° 0.1 mm 2 mps 763 mmHg 91%
    03:00 +24°C° 0.1 mm 2 mps 763 mmHg 93%
    04:00 +24°C° 0.1 mm 2 mps 763 mmHg 93%
    05:00 +24°C° 0.1 mm 2 mps 763 mmHg 93%
    06:00 +24°C° 0.1 mm 2 mps 763 mmHg 94%
    07:00 +26°C° 0 mm 2 mps 764 mmHg 84%
    08:00 +28°C° 0 mm 2 mps 764 mmHg 75%
    09:00 +30°C° 0 mm 2 mps 764 mmHg 65%
    10:00 +30°C° 0.1 mm 2 mps 764 mmHg 64%
    11:00 +30°C° 0.1 mm 2 mps 763 mmHg 63%
    12:00 +30°C° 0.1 mm 3 mps 763 mmHg 62%
    13:00 +30°C° 0 mm 3 mps 762 mmHg 62%
    14:00 +30°C° 0 mm 3 mps 762 mmHg 62%
    15:00 +29°C° 0 mm 3 mps 762 mmHg 61%
    16:00 +28°C° 0 mm 2 mps 762 mmHg 68%
    17:00 +26°C° 0 mm 2 mps 762 mmHg 76%
    18:00 +24°C° 0 mm 2 mps 763 mmHg 83%
    19:00 +24°C° 0 mm 1 mps 763 mmHg 84%
    20:00 +23°C° 0 mm 1 mps 763 mmHg 86%
    21:00 +23°C° 0 mm 1 mps 764 mmHg 88%
    22:00 +23°C° 0 mm 1 mps 764 mmHg 88%
    23:00 +23°C° 0 mm 1 mps 763 mmHg 88%

    Day after tomorrow, 8 December, Sunday

    Time Temperature Precipitation Wind Pressure Humidity
    00:00 +23°C° 0 mm 2 mps 763 mmHg 89%
    01:00 +23°C° 0 mm 2 mps 763 mmHg 89%
    02:00 +23°C° 0 mm 2 mps 763 mmHg 89%
    03:00 +21°C° 0 mm 2 mps 762 mmHg 89%
    04:00 +23°C° 0.1 mm 1 mps 762 mmHg 87%
    05:00 +23°C° 0.1 mm 1 mps 763 mmHg 86%
    06:00 +23°C° 0.1 mm 1 mps 763 mmHg 84%
    07:00 +24°C° 0.2 mm 1 mps 763 mmHg 80%
    08:00 +26°C° 0.2 mm 1 mps 763 mmHg 76%
    09:00 +27°C° 0.2 mm 1 mps 764 mmHg 72%
    10:00 +28°C° 0.1 mm 1 mps 763 mmHg 68%
    11:00 +30°C° 0.1 mm 1 mps 762 mmHg 63%
    12:00 +31°C° 0.1 mm 1 mps 762 mmHg 59%
    13:00 +30°C° 0.1 mm 1 mps 761 mmHg 64%
    14:00 +29°C° 0.1 mm 2 mps 761 mmHg 69%
    15:00 +28°C° 0.1 mm 2 mps 760 mmHg 75%
    16:00 +27°C° 0 mm 2 mps 761 mmHg 79%
    17:00 +26°C° 0 mm 3 mps 761 mmHg 82%
    18:00 +25°C° 0 mm 3 mps 761 mmHg 86%
    19:00 +25°C° 0 mm 2 mps 761 mmHg 86%
    20:00 +25°C° 0 mm 2 mps 762 mmHg 86%
    21:00 +25°C° 0 mm 2 mps 762 mmHg 86%
    22:00 +24°C° 0 mm 2 mps 762 mmHg 89%
    23:00 +23°C° 0 mm 2 mps 762 mmHg 92%

    9 December, Monday

    Time Temperature Precipitation Wind Pressure Humidity
    00:00 +23°C° 0 mm 2 mps 761 mmHg 95%
    01:00 +21°C° 0 mm 2 mps 761 mmHg 95%
    02:00 +21°C° 0 mm 2 mps 761 mmHg 95%
    03:00 +21°C° 0 mm 2 mps 761 mmHg 96%
    04:00 +21°C° 0 mm 2 mps 761 mmHg 95%
    05:00 +21°C° 0 mm 2 mps 761 mmHg 95%
    06:00 +21°C° 0 mm 2 mps 761 mmHg 95%
    07:00 +24°C° 0 mm 2 mps 761 mmHg 84%
    08:00 +27°C° 0 mm 1 mps 762 mmHg 73%
    09:00 +30°C° 0 mm 1 mps 762 mmHg 63%
    10:00 +31°C° 0 mm 1 mps 761 mmHg 58%
    11:00 +32°C° 0 mm 2 mps 761 mmHg 53%
    12:00 +34°C° 0 mm 2 mps 760 mmHg 49%
    13:00 +33°C° 0 mm 3 mps 760 mmHg 53%
    14:00 +33°C° 0 mm 3 mps 759 mmHg 57%
    15:00 +32°C° 0 mm 4 mps 759 mmHg 60%
    16:00 +29°C° 0.1 mm 4 mps 759 mmHg 71%
    17:00 +27°C° 0.1 mm 4 mps 759 mmHg 82%
    18:00 +25°C° 0.1 mm 3 mps 760 mmHg 92%
    19:00 +25°C° 0.1 mm 3 mps 760 mmHg 94%
    20:00 +24°C° 0.1 mm 3 mps 760 mmHg 96%
    21:00 +24°C° 0.1 mm 3 mps 761 mmHg 98%
    22:00 +24°C° 0 mm 3 mps 761 mmHg 98%
    23:00 +24°C° 0 mm 3 mps 760 mmHg 98%

    10 December, Tuesday

    Time Temperature Precipitation Wind Pressure Humidity
    00:00 +22°C° 0 mm 3 mps 760 mmHg 98%
    01:00 +23°C° 0 mm 2 mps 760 mmHg 97%
    02:00 +23°C° 0 mm 2 mps 760 mmHg 97%
    03:00 +23°C° 0 mm 2 mps 759 mmHg 97%
    04:00 +23°C° 0 mm 2 mps 760 mmHg 96%
    05:00 +23°C° 0 mm 2 mps 760 mmHg 95%
    06:00 +23°C° 0 mm 2 mps 760 mmHg 95%
    07:00 +25°C° 0 mm 2 mps 761 mmHg 82%
    08:00 +28°C° 0 mm 2 mps 761 mmHg 69%
    09:00 +31°C° 0 mm 2 mps 762 mmHg 57%
    10:00 +34°C° 0 mm 3 mps 761 mmHg 52%
    11:00 +35°C° 0 mm 4 mps 760 mmHg 48%
    12:00 +37°C° 0 mm 4 mps 760 mmHg 44%
    13:00 +36°C° 0.1 mm 5 mps 759 mmHg 50%
    14:00 +34°C° 0.1 mm 5 mps 759 mmHg 57%
    15:00 +33°C° 0.1 mm 6 mps 759 mmHg 63%
    16:00 +30°C° 0.2 mm 6 mps 759 mmHg 74%
    17:00 +28°C° 0.2 mm 6 mps 759 mmHg 84%
    18:00 +26°C° 0.2 mm 5 mps 760 mmHg 94%
    19:00 +26°C° 0.1 mm 5 mps 760 mmHg 95%
    20:00 +25°C° 0.1 mm 5 mps 761 mmHg 96%
    21:00 +25°C° 0.1 mm 5 mps 762 mmHg 97%
    22:00 +23°C° 0.1 mm 4 mps 761 mmHg 97%
    23:00 +23°C° 0.1 mm 4 mps 761 mmHg 97%

    11 December, Wednesday

    Time Temperature Precipitation Wind Pressure Humidity
    00:00 +23°C° 0.1 mm 4 mps 761 mmHg 97%
    01:00 +24°C° 0.3 mm 3 mps 761 mmHg 97%
    02:00 +24°C° 0.3 mm 3 mps 761 mmHg 97%
    03:00 +24°C° 0.3 mm 3 mps 761 mmHg 96%
    04:00 +22°C° 0.4 mm 3 mps 761 mmHg 96%
    05:00 +23°C° 0.4 mm 2 mps 761 mmHg 96%
    06:00 +23°C° 0.4 mm 2 mps 762 mmHg 96%
    07:00 +26°C° 0.3 mm 2 mps 762 mmHg 87%
    08:00 +28°C° 0.3 mm 2 mps 763 mmHg 77%
    09:00 +30°C° 0.3 mm 2 mps 763 mmHg 68%
    10:00 +30°C° 0.5 mm 2 mps 763 mmHg 74%
    11:00 +29°C° 0.5 mm 3 mps 762 mmHg 80%
    12:00 +29°C° 0.5 mm 3 mps 761 mmHg 86%
    13:00 +29°C° 1.1 mm 4 mps 761 mmHg 86%
    14:00 +29°C° 1.1 mm 4 mps 761 mmHg 87%
    15:00 +28°C° 1.1 mm 4 mps 760 mmHg 87%
    16:00 +27°C° 1.4 mm 4 mps 761 mmHg 91%
    17:00 +26°C° 1.4 mm 4 mps 761 mmHg 94%
    18:00 +25°C° 1.4 mm 4 mps 761 mmHg 98%
    19:00 +24°C° 1.5 mm 3 mps 762 mmHg 98%
    20:00 +24°C° 1.5 mm 3 mps 762 mmHg 98%
    21:00 +24°C° 1.5 mm 3 mps 763 mmHg 99%
    22:00 +24°C° 1.1 mm 3 mps 763 mmHg 99%
    23:00 +22°C° 1.1 mm 3 mps 762 mmHg 99%
    Show more